Retour au catalogue

STARLINK-34987

ActifCommunicationsSSO
NORAD 65255·PAYLOAD·🇺🇸 United States

Lancé Aug 18, 2025 depuis Vandenberg Space Force Base

Loading…

Prochains Passages (prochaines 24 heures)

TLE

FraisSource: CelesTrak SupGP

Époque: Sep 15, 2026, 02:33 UTC

1 65255C 25179W   26258.10673611  .00023596  00000+0  73236-3 0  2581
2 65255  97.2833 297.4985 0000929  86.7570 351.2695 15.33432271    17

Suivez STARLINK-34987 en temps réel avec AllMySat

Download on the App Store